Home   Weather   Brantford   Past weeks

Flag for Canada Past Weather in Brantford, Ontario, Canada — Yesterday and Last 2 Weeks

Now
57 °F

Fog.


Feels Like: 55 °F
Forecast: 54 / 61 °F
Wind: 8 mph from Northeast

Location: Hamilton Airport

Current Time: Oct 1, 2016 at 4:39:48 PM

Latest Report: Oct 1, 2016 at 4:00 PM


Visibility: 4 mi

Pressure: 30.10 "Hg

Humidity: 94%

Dew Point: 55 °F

Location of BrantfordLocation

Past Weather in Brantford — Graph

°F

Brantford Temperature Yesterday

Maximum temperature yesterday: 63 °F (at 1:00 PM)
Minimum temperature yesterday: 55 °F (at 8:00 AM)
Average temperature yesterday: 58 °F

High & Low Weather Summary for the Past Weeks

 TemperatureHumidityPressure
High84 °F (Sep 22, 3:00 PM)100% (Sep 17, 1:00 PM)30.34 "Hg (Sep 17, 1:00 PM)
Low45 °F (Sep 25, 3:00 AM)30% (Sep 21, 4:00 PM)29.75 "Hg (Sep 27, 3:00 PM)
Average62 °F76%30.09 "Hg
* Reported Sep 16 3:00 PM — Oct 1 3:00 PM, Brantford, Weather by CustomWeather, © 2016

Note: Actual official high and low records may vary slightly from our data, if they occured in-between our weather recording intervals... More about our weather records

Advertising

Brantford Weather History for the Previous 24 Hours

Scroll right to see more
 ConditionsComfort  
Time TempWeatherWind HumidityBarometerVisibility
3:00 PM
Sat, Oct 1
59 °FFog.13 mph94%30.09 "Hg4 mi
2:00 PM59 °FLow clouds.12 mph94%30.10 "Hg8 mi
1:00 PM59 °FLow clouds.12 mph94%30.12 "Hg8 mi
12:00 PM57 °FFog.12 mph94%30.13 "Hg6 mi
11:00 AM57 °FMostly cloudy.12 mph94%30.14 "Hg7 mi
10:00 AM55 °FDrizzle. Fog.8 mph100%30.16 "Hg4 mi
9:00 AM55 °FLight rain. Mostly cloudy.10 mph94%30.16 "Hg7 mi
8:00 AM54 °FLight rain. Fog.10 mph100%30.16 "Hg6 mi
7:00 AM54 °FMostly cloudy.10 mph100%30.16 "Hg7 mi
6:00 AM54 °FHeavy rain. Overcast.9 mph100%30.17 "Hg7 mi
5:00 AM55 °FLight rain. Mostly cloudy.12 mph94%30.16 "Hg15 mi
4:00 AM55 °FLight rain. Low clouds.14 mph94%30.16 "Hg12 mi
3:00 AM55 °FLow clouds.12 mph88%30.18 "Hg12 mi
2:00 AM55 °FLow clouds.17 mph88%30.19 "Hg15 mi
1:00 AM55 °FMostly cloudy.17 mph88%30.20 "Hg15 mi
12:00 AM55 °FOvercast.17 mph88%30.20 "Hg15 mi
11:00 PM
Fri, Sep 30
55 °FOvercast.16 mph88%30.20 "Hg15 mi
10:00 PM55 °FLight rain. Mostly cloudy.18 mph94%30.22 "Hg12 mi
9:47 PM55 °FLight rain. Mostly cloudy.20 mph94%30.23 "Hg7 mi
9:00 PM57 °FOvercast.20 mph82%30.23 "Hg15 mi
8:00 PM55 °FLight rain. Overcast.22 mph88%30.23 "Hg12 mi
7:00 PM57 °FPartly sunny.24 mph77%30.23 "Hg15 mi
6:00 PM59 °FPartly sunny.21 mph72%30.22 "Hg15 mi
5:00 PM59 °FPartly sunny.23 mph68%30.22 "Hg15 mi
4:00 PM59 °FPartly sunny.22 mph68%30.22 "Hg15 mi
Weather by CustomWeather, © 2016

See weather overviewHow to use our weather pages